Radiation Dose at Monitoring Post of Fukushima Daini Nuclear Power Station
Date,Time,MP-1(microSv/h),MP-2(microSv/h),MP-3(microSv/h),MP-4(microSv/h),MP-5(microSv/h),MP-6(microSv/h),MP-7(microSv/h),Wind Direction,Wind Velocity(m/s),Rain
2014/12/17,00:00,0.589,0.380,0.627,0.564,0.566,0.255,0.226,west,13.3,No
2014/12/17,00:10,0.590,0.379,0.627,0.564,0.565,0.254,0.226,west,10.6,No
2014/12/17,00:20,0.588,0.380,0.629,0.564,0.565,0.255,0.226,west,11.6,No
2014/12/17,00:30,0.590,0.381,0.629,0.565,0.564,0.254,0.227,west,11.8,No
2014/12/17,00:40,0.588,0.380,0.627,0.566,0.566,0.254,0.226,west,11.4,No
2014/12/17,00:50,0.589,0.379,0.629,0.565,0.567,0.256,0.226,west,10.9,No
2014/12/17,01:00,0.590,0.380,0.629,0.566,0.566,0.256,0.226,west,9.8,No
2014/12/17,01:10,0.589,0.378,0.628,0.567,0.567,0.254,0.226,west,10.5,No
2014/12/17,01:20,0.590,0.378,0.632,0.566,0.565,0.256,0.227,west-northwest,10.1,No
2014/12/17,01:30,0.589,0.380,0.631,0.566,0.566,0.256,0.227,west,11.5,Yes
2014/12/17,01:40,0.592,0.382,0.630,0.567,0.566,0.256,0.228,west,10.7,Yes
2014/12/17,01:50,0.592,0.380,0.631,0.567,0.566,0.256,0.227,west,9.1,No
2014/12/17,02:00,0.591,0.382,0.629,0.565,0.566,0.256,0.228,west,8.1,No
2014/12/17,02:10,0.593,0.381,0.630,0.567,0.566,0.257,0.227,west,8.0,No
2014/12/17,02:20,0.590,0.382,0.631,0.565,0.566,0.255,0.226,west,7.6,No
2014/12/17,02:30,0.590,0.380,0.633,0.567,0.565,0.256,0.227,west-northwest,5.3,No
2014/12/17,02:40,0.591,0.381,0.631,0.566,0.564,0.256,0.227,northwest,6.7,No
2014/12/17,02:50,0.593,0.379,0.630,0.567,0.566,0.256,0.228,west-northwest,8.1,No
2014/12/17,03:00,0.591,0.380,0.630,0.568,0.566,0.257,0.228,west-northwest,7.8,No
2014/12/17,03:10,0.590,0.380,0.630,0.566,0.566,0.256,0.227,west-northwest,9.8,No
2014/12/17,03:20,0.592,0.381,0.630,0.568,0.567,0.258,0.228,west-northwest,8.7,No
2014/12/17,03:30,0.591,0.380,0.632,0.568,0.567,0.255,0.227,west-northwest,7.9,No
2014/12/17,03:40,0.591,0.381,0.631,0.566,0.565,0.256,0.228,west-northwest,7.0,No
2014/12/17,03:50,0.592,0.379,0.631,0.567,0.566,0.256,0.228,west-northwest,9.0,No
2014/12/17,04:00,0.591,0.380,0.631,0.566,0.566,0.257,0.226,west,11.5,No
2014/12/17,04:10,0.593,0.380,0.632,0.567,0.569,0.258,0.227,west,9.8,No
2014/12/17,04:20,0.594,0.381,0.630,0.568,0.566,0.257,0.228,west-northwest,9.6,No
2014/12/17,04:30,0.593,0.380,0.632,0.568,0.567,0.256,0.228,west,9.2,No
2014/12/17,04:40,0.594,0.382,0.631,0.567,0.565,0.257,0.227,northwest,6.9,No
2014/12/17,04:50,0.591,0.380,0.632,0.567,0.568,0.255,0.227,north-northwest,5.3,No
2014/12/17,05:00,0.595,0.380,0.633,0.570,0.565,0.256,0.229,northwest,5.2,No
2014/12/17,05:10,0.593,0.380,0.633,0.567,0.567,0.257,0.227,north-northwest,3.6,No
2014/12/17,05:20,0.594,0.381,0.631,0.568,0.567,0.256,0.228,west,4.2,No
2014/12/17,05:30,0.592,0.381,0.631,0.566,0.566,0.257,0.228,west,7.6,No
2014/12/17,05:40,0.593,0.380,0.633,0.568,0.567,0.258,0.228,west,7.3,No
2014/12/17,05:50,0.593,0.382,0.632,0.568,0.568,0.257,0.229,west-northwest,6.3,No
2014/12/17,06:00,0.595,0.381,0.632,0.568,0.567,0.259,0.228,west-northwest,8.9,No
2014/12/17,06:10,0.593,0.381,0.632,0.570,0.567,0.258,0.228,west,10.1,No
2014/12/17,06:20,0.593,0.383,0.634,0.569,0.568,0.258,0.228,west-northwest,9.8,No
2014/12/17,06:30,0.594,0.380,0.632,0.569,0.566,0.257,0.228,west,9.4,No
2014/12/17,06:40,0.594,0.381,0.633,0.569,0.567,0.258,0.229,west,10.1,No
2014/12/17,06:50,0.592,0.380,0.634,0.568,0.568,0.257,0.229,west,7.9,No
2014/12/17,07:00,0.595,0.382,0.634,0.569,0.566,0.257,0.228,west,9.3,No
2014/12/17,07:10,0.593,0.381,0.634,0.568,0.567,0.256,0.227,west-northwest,10.3,No
2014/12/17,07:20,0.595,0.382,0.635,0.569,0.567,0.257,0.228,west,10.6,No
2014/12/17,07:30,0.593,0.381,0.634,0.570,0.568,0.257,0.230,west,12.6,No
2014/12/17,07:40,0.593,0.381,0.636,0.568,0.569,0.258,0.229,west-northwest,10.6,No
2014/12/17,07:50,0.595,0.381,0.635,0.570,0.569,0.259,0.228,west,12.3,No
2014/12/17,08:00,0.597,0.382,0.633,0.569,0.568,0.258,0.229,west,8.7,No
2014/12/17,08:10,0.596,0.383,0.636,0.570,0.568,0.257,0.229,west,11.8,No
2014/12/17,08:20,0.596,0.381,0.635,0.570,0.569,0.258,0.228,west-northwest,8.4,No
2014/12/17,08:30,0.596,0.382,0.637,0.571,0.567,0.259,0.229,west,5.5,No
2014/12/17,08:40,0.596,0.383,0.636,0.570,0.569,0.259,0.228,west,7.6,No
2014/12/17,08:50,0.595,0.382,0.637,0.570,0.569,0.259,0.229,west,9.8,No
2014/12/17,09:00,0.597,0.383,0.636,0.571,0.569,0.258,0.229,west,5.9,No
2014/12/17,09:10,0.596,0.383,0.636,0.570,0.569,0.258,0.228,west,7.3,No
2014/12/17,09:20,0.596,0.383,0.636,0.572,0.569,0.259,0.230,west,7.0,No
2014/12/17,09:30,0.597,0.384,0.635,0.571,0.570,0.257,0.230,west,4.5,No
2014/12/17,09:40,0.597,0.384,0.637,0.572,0.568,0.258,0.229,west-northwest,2.0,No
2014/12/17,09:50,0.597,0.384,0.638,0.573,0.568,0.257,0.229,northwest,1.4,No
2014/12/17,10:00,0.595,0.383,0.637,0.571,0.567,0.259,0.229,west,3.7,No
2014/12/17,10:10,0.597,0.383,0.636,0.573,0.570,0.258,0.230,west-northwest,4.1,No
2014/12/17,10:20,0.597,0.384,0.637,0.571,0.570,0.259,0.228,northwest,3.9,No
2014/12/17,10:30,0.599,0.383,0.636,0.571,0.569,0.258,0.229,west-northwest,2.8,No
2014/12/17,10:40,0.596,0.384,0.637,0.571,0.568,0.259,0.229,west-southwest,3.1,No
2014/12/17,10:50,0.597,0.383,0.638,0.570,0.569,0.258,0.230,northwest,1.1,No
2014/12/17,11:00,0.598,0.383,0.638,0.571,0.569,0.258,0.230,west,8.4,No
2014/12/17,11:10,0.597,0.383,0.637,0.572,0.569,0.260,0.230,west,11.7,No
2014/12/17,11:20,0.596,0.382,0.636,0.572,0.569,0.259,0.228,west,10.1,No
2014/12/17,11:30,0.598,0.383,0.637,0.573,0.568,0.259,0.229,west-northwest,13.5,No
2014/12/17,11:40,0.599,0.384,0.638,0.573,0.569,0.259,0.229,west-northwest,11.4,No
2014/12/17,11:50,0.599,0.385,0.638,0.573,0.568,0.259,0.230,west,10.4,No
2014/12/17,12:00,0.598,0.385,0.638,0.574,0.570,0.258,0.230,west-northwest,10.4,No
2014/12/17,12:10,0.597,0.384,0.637,0.574,0.569,0.259,0.228,west,10.2,No
2014/12/17,12:20,0.596,0.384,0.638,0.572,0.570,0.259,0.228,west,7.5,No
2014/12/17,12:30,0.599,0.386,0.638,0.573,0.569,0.258,0.230,west-northwest,8.4,No
2014/12/17,12:40,0.599,0.383,0.639,0.574,0.570,0.259,0.229,west,10.0,No
2014/12/17,12:50,0.597,0.384,0.639,0.574,0.569,0.259,0.231,west,9.2,No
2014/12/17,13:00,0.599,0.384,0.638,0.573,0.570,0.258,0.230,west,6.8,No
2014/12/17,13:10,0.599,0.383,0.641,0.573,0.569,0.260,0.231,west,6.8,No
2014/12/17,13:20,0.599,0.384,0.639,0.573,0.569,0.259,0.231,west,8.7,No
2014/12/17,13:30,0.599,0.385,0.640,0.576,0.571,0.260,0.230,west,7.2,No
2014/12/17,13:40,0.598,0.384,0.639,0.574,0.572,0.261,0.229,west-northwest,7.3,No
2014/12/17,13:50,0.599,0.386,0.637,0.575,0.568,0.260,0.231,west-northwest,9.5,No
2014/12/17,14:00,0.599,0.383,0.640,0.575,0.569,0.260,0.230,west,5.7,No
2014/12/17,14:10,0.600,0.383,0.637,0.576,0.571,0.259,0.232,west,7.8,No
2014/12/17,14:20,0.599,0.385,0.638,0.573,0.568,0.259,0.231,west-northwest,4.8,No
2014/12/17,14:30,0.599,0.384,0.639,0.574,0.572,0.259,0.232,west-northwest,9.2,No
2014/12/17,14:40,0.600,0.385,0.640,0.574,0.570,0.259,0.231,west-northwest,3.6,No
2014/12/17,14:50,0.601,0.385,0.639,0.575,0.569,0.260,0.231,north,1.7,No
2014/12/17,15:00,0.599,0.384,0.639,0.574,0.570,0.259,0.231,west-northwest,0.8,No
2014/12/17,15:10,0.599,0.385,0.639,0.573,0.571,0.259,0.231,southwest,2.9,No
2014/12/17,15:20,0.599,0.384,0.639,0.575,0.570,0.261,0.232,-,CALM,No
2014/12/17,15:30,0.599,0.384,0.639,0.575,0.570,0.260,0.232,west,3.5,No
2014/12/17,15:40,0.602,0.385,0.641,0.575,0.570,0.260,0.231,northwest,2.1,No
2014/12/17,15:50,0.599,0.384,0.639,0.573,0.569,0.259,0.231,west,2.0,No
2014/12/17,16:00,0.600,0.385,0.639,0.572,0.571,0.261,0.232,west,1.4,No
2014/12/17,16:10,0.600,0.385,0.638,0.574,0.570,0.260,0.232,southwest,3.6,No
2014/12/17,16:20,0.600,0.383,0.639,0.574,0.570,0.260,0.232,south-southwest,2.0,No
2014/12/17,16:30,0.601,0.384,0.639,0.574,0.571,0.261,0.232,west-southwest,4.5,No
2014/12/17,16:40,0.599,0.385,0.639,0.574,0.570,0.261,0.232,west-southwest,1.7,No
2014/12/17,16:50,0.600,0.384,0.642,0.574,0.570,0.260,0.231,west,4.7,No
2014/12/17,17:00,0.600,0.385,0.638,0.574,0.569,0.260,0.232,west-northwest,4.8,No
2014/12/17,17:10,0.599,0.384,0.639,0.574,0.570,0.261,0.231,west-northwest,1.7,No
2014/12/17,17:20,0.599,0.384,0.639,0.574,0.570,0.260,0.232,west-northwest,1.2,No
2014/12/17,17:30,0.600,0.385,0.639,0.574,0.570,0.261,0.233,west,3.5,No
2014/12/17,17:40,0.600,0.383,0.640,0.573,0.570,0.262,0.231,west,9.4,No
2014/12/17,17:50,0.600,0.384,0.639,0.572,0.567,0.260,0.232,west,7.9,No
2014/12/17,18:00,0.598,0.382,0.640,0.574,0.570,0.261,0.233,west-northwest,6.2,No
2014/12/17,18:10,0.599,0.384,0.639,0.574,0.571,0.260,0.232,west-northwest,2.1,No
2014/12/17,18:20,0.600,0.384,0.639,0.574,0.569,0.262,0.231,west,5.1,No
2014/12/17,18:30,0.599,0.384,0.639,0.573,0.571,0.261,0.233,west,9.8,No
2014/12/17,18:40,0.599,0.383,0.639,0.572,0.570,0.262,0.231,west,9.5,No
2014/12/17,18:50,0.599,0.384,0.639,0.574,0.570,0.261,0.232,west,9.2,No
2014/12/17,19:00,0.599,0.383,0.640,0.574,0.569,0.261,0.233,west-northwest,6.7,No
2014/12/17,19:10,0.599,0.382,0.638,0.573,0.569,0.260,0.232,west,6.1,No
2014/12/17,19:20,0.601,0.384,0.640,0.572,0.570,0.261,0.232,west-northwest,11.2,No
2014/12/17,19:30,0.599,0.384,0.639,0.573,0.570,0.260,0.232,west-northwest,7.2,No
2014/12/17,19:40,0.601,0.385,0.641,0.573,0.569,0.260,0.231,west-northwest,5.7,No
2014/12/17,19:50,0.598,0.386,0.640,0.575,0.569,0.260,0.231,west,6.0,No
2014/12/17,20:00,0.598,0.382,0.641,0.574,0.571,0.261,0.233,west,7.1,No
2014/12/17,20:10,0.600,0.384,0.640,0.574,0.569,0.261,0.232,west,8.5,No
2014/12/17,20:20,0.598,0.383,0.638,0.573,0.570,0.259,0.231,west-southwest,9.8,No
2014/12/17,20:30,0.599,0.384,0.642,0.574,0.569,0.261,0.231,west-southwest,5.4,No
2014/12/17,20:40,0.600,0.384,0.639,0.575,0.568,0.260,0.231,southwest,3.1,No
2014/12/17,20:50,0.599,0.384,0.638,0.574,0.570,0.261,0.231,west-southwest,9.8,No
2014/12/17,21:00,0.599,0.383,0.641,0.574,0.569,0.259,0.232,west-southwest,9.6,No
2014/12/17,21:10,0.599,0.384,0.639,0.573,0.569,0.261,0.232,west-southwest,8.0,No
2014/12/17,21:20,0.600,0.384,0.638,0.574,0.569,0.261,0.230,west,7.5,No
2014/12/17,21:30,0.599,0.383,0.640,0.573,0.569,0.261,0.231,west-southwest,7.1,No
2014/12/17,21:40,0.599,0.384,0.641,0.572,0.569,0.260,0.233,west,8.6,No
2014/12/17,21:50,0.600,0.384,0.641,0.573,0.568,0.261,0.231,west,7.0,No
2014/12/17,22:00,0.600,0.384,0.642,0.574,0.571,0.261,0.232,west,6.7,No
2014/12/17,22:10,0.602,0.383,0.640,0.574,0.570,0.261,0.231,west,7.0,No
2014/12/17,22:20,0.601,0.384,0.641,0.574,0.569,0.260,0.232,west-southwest,10.1,No
2014/12/17,22:30,0.599,0.383,0.640,0.573,0.570,0.261,0.232,west,5.9,No
2014/12/17,22:40,0.599,0.384,0.641,0.574,0.570,0.261,0.231,west,5.4,No
2014/12/17,22:50,0.599,0.384,0.642,0.574,0.568,0.258,0.232,west,7.3,No
2014/12/17,23:00,0.598,0.383,0.640,0.574,0.570,0.262,0.232,west,2.9,No
2014/12/17,23:10,0.598,0.384,0.640,0.575,0.569,0.260,0.233,northwest,1.5,No
2014/12/17,23:20,0.598,0.384,0.641,0.575,0.568,0.260,0.232,west-northwest,2.5,No
2014/12/17,23:30,0.598,0.384,0.641,0.575,0.569,0.261,0.232,west,3.3,No
2014/12/17,23:40,0.599,0.384,0.641,0.575,0.569,0.262,0.231,west,4.0,No
2014/12/17,23:50,0.599,0.383,0.641,0.574,0.569,0.261,0.230,west-northwest,6.7,No
